サイディング・スプリング彗星

C/2007 K3 ( Siding Spring )

English version
Home page
Updated on April 6, 2013

---------------------------------------------------------------------

・ プロフィール

発見日 2007年5月23日
発見光度 19.0等
発見者 Siding Spring Survey

・ 写真集

・ 軌道要素

Epoch 2008 Apr. 4.0 TT = JDT 2454560.5
T 2008 Apr. 21.69746 TT                                 MPC
q   2.0507803            (2000.0)            P               Q
z  -0.0006238      Peri.   23.58687     +0.27371735     +0.92053891
 +/-0.0000085      Node   263.25250     -0.92108006     +0.16744000
e   1.0012792      Incl.   16.30006     -0.27693019     +0.35294752
From 80 observations 2007 Apr. 18-2008 Sept. 28, mean residual 0".6.

・ 星図

・ 光度変化

        m1 = 12.0 + 5 logΔ + 10.0 log r(t + 220)

        ※ 灰色の曲線は、m1 = 9.5 + 5 logΔ + 10.0 log r の光度曲線です。

---------------------------------------------------------------------

軌道要素はM.P.E.C. 2013-B90に掲載されたものです。
星図は StellaNavigator Ver.2.0 for Windows (アストロアーツ編著 / アスキー出版局刊) で作成したものです。
光度グラフはComet for Windowsで作成したものです。

---------------------------------------------------------------------

Copyright(C) Seiichi Yoshida (comet@aerith.net). All rights reserved.